CZ-2C DEB (43533 NORAD) Tracking and Keplerian Element Data

This shows tracking and keplerian element data for the satellite.

Feedback or suggestion? Click here.




ElementValue
Catalog43533
NameCZ-2C DEB
Epoch Orbit331
Epoch Day211.24981164
Epoch Year2018
RAAN284.9782
Inclination98.0804
Eccentricity0.0035211
Argument of Perigee91.3916
Mean Anonmoly317.8207
Mean Motion16.30837664
Decay Rate0.14921517
L11 43533U 18056E 18211.24981164 .14921517 28957-5 25939-2 0 9992
L22 43533 98.0804 284.9782 0035211 91.3916 317.8207 16.30837664 3319

Live tracking and technical data element details for CZ-2C DEB (NORAD 43533). CZ-2C DEB can be tracked NOW for your location showing map with azimuth and elevation plus other details from your city location.

Track the satellite on the map from your city or location and see movement details for azimuth, elevation, latitude, longitude, range, height, and movement on the map or in text.







IsCatalogInMostPopularTable: catalog: 43533, numindb: 40
Update: records affected: 1



GetName: 43533 CZ-2C DEB

Hit Count: updated at: Sat, 17 Nov 2018 03:27:56 GMT